Location: Casteau
(50.5142°N, 4.0161°E)
Time: 05:51:04
(UTC+00:00)

Vanguard 1 Rocket - Pass Details

Date: 03 August 2021
Orbit: 650 x 4226 km, 34.3° (Epoch: 21 September)

Event Time Altitude Azimuth Distance (km) Brightness Sun altitude
Rises 11:43:22 0° 254° (WSW) 7,508 12.2 56.8°
Reaches altitude 10° 11:49:41 10° 248° (WSW) 5,929 11.8 56.9°
Maximum altitude 12:03:20 35° 192° (SSW) 2,861 11.5 56.7°
Drops below altitude 10° 12:11:09 10° 130° (SE) 3,379 10.7 56.6°
Sets 12:13:41 0° 120° (ESE) 4,026 10.9 56.5°
